Find Gxiba-1

NORAD ID: 67685 Int'l Des: 1998-067 Owner: UPAEP Country: MX operational
LEOCIRCULAR

現在のビュー

3D地球を読み込み中...

Gxiba-1について

説明を読み込み中...

次回通過

Passes for default location (London). Set your location on the main map for personalized predictions.

高度履歴

Loading altitude history...

軌道要素

1 67685U 98067YB 26144.97483317 .00048472 00000-0 61449-3 0 9993
2 67685 51.6289 50.5589 0013488 113.7790 246.4618 15.58858192 16661
Epoch: May 24, 2026 • Age: 33 hours

現在のステータス

高度 406.0 km
速度 7.67 km/s
衛星直下点 -37.65°S, 113.28°W
打ち上げ日 Oct 26, 2025
運用期間 0.5 years
タイプ other

技術仕様

分類 Payload
質量 1.00 kg
乾燥質量 1.00 kg
総質量 1.00 kg
長さ 0.10 m
直径 0.10 m
スパン 0.10 m
形状 Box
製造者 UPAEP
バスタイプ Cubesat 1U
フェーズステータス In Orbit
所有者/国 UPAEP/MX

Most Searched